Location: Gu�tanj
(46.5431°N, 14.9692°E)
Time: 15:37:11
(UTC+00:00)

Okean 1-7 - Pass Details

Date: 03 March 2021
Orbit: 589 x 619 km, 82.5° (Epoch: 14 April)

Event Time Altitude Azimuth Distance (km) Brightness Sun altitude
Rises 17:57:38 0° 356° (N) 2,898 6.6 -12.6°
Reaches altitude 10° 17:59:58 10° 3° (N) 1,984 5.7 -13.0°
Maximum altitude 18:04:11 44° 76° (ENE) 846 3.3 -13.7°
Drops below altitude 10° 18:08:19 10° 149° (SSE) 1,951 5.3 -14.4°
Enters shadow 18:08:53 - 152° (SSE) 2,171 5.5 -14.5°
